Location: Blankensee
(53.5126°N, 14.3055°E)
Time: 18:56:35
(UTC+00:00)

Lacrosse 4 Rocket - Pass Details

Date: 08 August 2020
Orbit: 544 x 615 km, 68.0° (Epoch: 20 September)

Event Time Altitude Azimuth Distance (km) Brightness Sun altitude
Exits shadow 01:53:37 - 278° (W) 2,679 4.5 -12.0°
Reaches altitude 10° 01:56:17 10° 298° (WNW) 1,881 3.9 -11.7°
Maximum altitude 01:58:55 16° 337° (NNW) 1,521 3.9 -11.4°
Drops below altitude 10° 02:01:32 10° 17° (NNE) 1,859 5.1 -11.2°
Sets 02:04:30 0° 39° (NE) 2,744 7.1 -10.9°
